Time,TemperatureF,DewpointF,PressureIn,WindDirection,WindDirectionDegrees,WindSpeedMPH,WindSpeedGustMPH,Humidity,HourlyPrecipIn,Conditions,Clouds,dailyrainin,SoftwareType,DateUTC
2013-02-01 00:12:00,29.0,23.0,-100.00,WSW,240,11.0,12.0,80,-99.99,,,0.00,,2013-02-01 07:12:00,
2013-02-01 00:22:00,29.0,23.0,-100.00,WSW,240,11.0,12.0,80,-99.99,,,0.00,,2013-02-01 07:22:00,
2013-02-01 01:32:00,29.0,23.0,-100.00,WSW,245,8.0,12.0,79,-99.99,,,0.00,,2013-02-01 08:32:00,
2013-02-01 01:42:00,29.0,23.0,-100.00,WSW,245,8.0,12.0,79,-99.99,,,0.00,,2013-02-01 08:42:00,
2013-02-01 01:52:00,29.0,23.0,-100.00,WSW,245,8.0,12.0,79,-99.99,,,0.00,,2013-02-01 08:52:00,
2013-02-01 02:01:00,29.0,23.0,-100.00,WSW,245,8.0,12.0,79,-99.99,,,0.00,,2013-02-01 09:01:00,
2013-02-01 02:11:00,30.0,23.0,-100.00,WSW,245,8.0,15.0,77,-99.99,,,0.00,,2013-02-01 09:11:00,
2013-02-01 02:21:00,30.0,23.0,-100.00,WSW,245,8.0,15.0,77,-99.99,,,0.00,,2013-02-01 09:21:00,
2013-02-01 02:31:00,28.0,25.0,-100.00,SSW,210,13.0,16.0,87,-99.99,,,-99.99,,2013-02-01 09:31:00,
2013-02-01 02:32:00,29.0,23.0,-100.00,WSW,245,4.0,8.0,78,-99.99,,,0.00,,2013-02-01 09:32:00,
2013-02-01 02:41:00,29.0,23.0,-100.00,WSW,245,4.0,8.0,78,-99.99,,,0.00,,2013-02-01 09:41:00,
2013-02-01 02:51:00,29.0,23.0,-100.00,WSW,245,4.0,8.0,78,-99.99,,,-99.99,,2013-02-01 09:51:00,
2013-02-01 03:11:00,28.0,25.0,-100.00,SSW,210,13.0,16.0,87,-99.99,,,-99.99,,2013-02-01 10:11:00,
2013-02-01 03:21:00,28.0,25.0,-100.00,SSW,210,13.0,16.0,87,-99.99,,,-99.99,,2013-02-01 10:21:00,
2013-02-01 04:11:00,28.0,25.0,-100.00,SW,225,12.0,16.0,87,-99.99,,,0.00,,2013-02-01 11:11:00,
2013-02-01 04:21:00,28.0,25.0,-100.00,SW,225,12.0,16.0,87,-99.99,,,0.00,,2013-02-01 11:21:00,
2013-02-01 04:32:00,28.0,25.0,-100.00,SW,225,12.0,16.0,87,-99.99,,,0.00,,2013-02-01 11:32:00,
2013-02-01 05:02:00,28.0,24.0,-100.00,SW,225,11.0,16.0,85,-99.99,,,0.00,,2013-02-01 12:02:00,
2013-02-01 05:12:00,28.0,24.0,-100.00,SW,220,9.0,16.0,85,-99.99,,,0.00,,2013-02-01 12:12:00,
2013-02-01 05:22:00,28.0,24.0,-100.00,SW,220,9.0,16.0,85,-99.99,,,0.00,,2013-02-01 12:22:00,
2013-02-01 05:32:00,28.0,24.0,-100.00,SW,225,11.0,16.0,85,-99.99,,,0.00,,2013-02-01 12:32:00,
2013-02-01 05:42:00,28.0,24.0,-100.00,SW,225,11.0,16.0,85,-99.99,,,0.00,,2013-02-01 12:42:00,
2013-02-01 05:52:00,28.0,24.0,-100.00,SW,225,11.0,16.0,85,-99.99,,,0.00,,2013-02-01 12:52:00,
2013-02-01 06:11:00,28.0,24.0,-100.00,SW,230,10.0,12.0,85,-99.99,,,-99.99,,2013-02-01 13:11:00,
2013-02-01 06:21:00,28.0,24.0,-100.00,SW,230,10.0,12.0,85,-99.99,,,-99.99,,2013-02-01 13:21:00,
2013-02-01 07:02:00,27.0,23.0,-100.00,West,280,8.0,13.0,85,-99.99,,,0.00,,2013-02-01 14:02:00,
2013-02-01 07:11:00,28.0,22.0,-100.00,SW,235,14.0,16.0,79,-99.99,,,0.00,,2013-02-01 14:11:00,
2013-02-01 07:21:00,28.0,22.0,-100.00,SW,235,14.0,16.0,79,-99.99,,,0.00,,2013-02-01 14:21:00,
2013-02-01 07:32:00,27.0,23.0,-100.00,West,280,8.0,13.0,85,-99.99,,,0.00,,2013-02-01 14:32:00,
2013-02-01 07:42:00,27.0,23.0,-100.00,West,280,8.0,13.0,85,-99.99,,,0.00,,2013-02-01 14:42:00,
2013-02-01 07:52:00,27.0,23.0,-100.00,West,280,8.0,13.0,85,-99.99,,,0.00,,2013-02-01 14:52:00,
2013-02-01 08:01:00,27.0,22.0,-100.00,WSW,245,9.0,11.0,81,-99.99,,,0.00,,2013-02-01 15:01:00,
2013-02-01 08:12:00,26.0,23.0,-100.00,WSW,245,6.0,8.0,89,-99.99,,,0.00,,2013-02-01 15:12:00,
2013-02-01 08:21:00,26.0,23.0,-100.00,WSW,245,6.0,8.0,89,-99.99,,,0.00,,2013-02-01 15:21:00,
2013-02-01 08:32:00,27.0,22.0,-100.00,WSW,245,9.0,11.0,81,-99.99,,,0.00,,2013-02-01 15:32:00,
2013-02-01 08:42:00,27.0,22.0,-100.00,WSW,245,9.0,11.0,81,-99.99,,,0.00,,2013-02-01 15:42:00,
2013-02-01 08:51:00,27.0,22.0,-100.00,WSW,245,9.0,11.0,81,-99.99,,,0.00,,2013-02-01 15:51:00,
2013-02-01 09:01:00,27.0,21.0,-100.00,SW,230,9.0,12.0,79,-99.99,,,0.00,,2013-02-01 16:01:00,
2013-02-01 09:11:00,27.0,22.0,-100.00,WSW,255,6.0,9.0,80,-99.99,,,0.00,,2013-02-01 16:11:00,
2013-02-01 09:22:00,27.0,22.0,-100.00,WSW,255,6.0,9.0,80,-99.99,,,0.00,,2013-02-01 16:22:00,
2013-02-01 09:32:00,27.0,21.0,-100.00,SW,230,9.0,12.0,79,-99.99,,,0.00,,2013-02-01 16:32:00,
2013-02-01 09:42:00,27.0,21.0,-100.00,SW,230,9.0,12.0,79,-99.99,,,0.00,,2013-02-01 16:42:00,
2013-02-01 09:52:00,27.0,21.0,-100.00,SW,230,9.0,12.0,79,-99.99,,,0.00,,2013-02-01 16:52:00,
2013-02-01 10:01:00,27.0,20.0,-100.00,SW,235,13.0,17.0,73,-99.99,,,0.00,,2013-02-01 17:01:00,
2013-02-01 10:11:00,27.0,20.0,-100.00,SW,235,16.0,19.0,76,-99.99,,,0.00,,2013-02-01 17:11:00,
2013-02-01 10:22:00,27.0,20.0,-100.00,SW,235,16.0,19.0,76,-99.99,,,0.00,,2013-02-01 17:22:00,
2013-02-01 10:32:00,27.0,20.0,-100.00,SW,235,13.0,17.0,73,-99.99,,,0.00,,2013-02-01 17:32:00,
2013-02-01 10:42:00,27.0,20.0,-100.00,SW,235,13.0,17.0,73,-99.99,,,0.00,,2013-02-01 17:42:00,
2013-02-01 10:52:00,27.0,20.0,-100.00,SW,235,13.0,17.0,73,-99.99,,,0.00,,2013-02-01 17:52:00,
2013-02-01 11:01:00,28.0,19.0,-100.00,WSW,240,15.0,21.0,68,-99.99,,,0.00,,2013-02-01 18:01:00,
2013-02-01 11:12:00,28.0,20.0,-100.00,SW,235,18.0,22.0,72,-99.99,,,0.00,,2013-02-01 18:12:00,
2013-02-01 11:22:00,28.0,20.0,-100.00,SW,235,18.0,22.0,72,-99.99,,,0.00,,2013-02-01 18:22:00,
2013-02-01 11:32:00,28.0,19.0,-100.00,WSW,240,15.0,21.0,68,-99.99,,,0.00,,2013-02-01 18:32:00,
2013-02-01 11:42:00,28.0,19.0,-100.00,WSW,240,15.0,21.0,68,-99.99,,,0.00,,2013-02-01 18:42:00,
2013-02-01 11:52:00,28.0,19.0,-100.00,WSW,240,15.0,21.0,68,-99.99,,,0.00,,2013-02-01 18:52:00,
2013-02-01 12:02:00,29.0,20.0,-100.00,SW,230,16.0,21.0,68,-99.99,,,0.00,,2013-02-01 19:02:00,
2013-02-01 12:11:00,28.0,19.0,-100.00,WSW,240,17.0,24.0,69,-99.99,,,0.00,,2013-02-01 19:11:00,
2013-02-01 12:21:00,28.0,19.0,-100.00,WSW,240,17.0,24.0,69,-99.99,,,0.00,,2013-02-01 19:21:00,
2013-02-01 12:32:00,29.0,20.0,-100.00,SW,230,16.0,21.0,68,-99.99,,,0.00,,2013-02-01 19:32:00,
2013-02-01 12:42:00,29.0,20.0,-100.00,SW,230,16.0,21.0,68,-99.99,,,0.00,,2013-02-01 19:42:00,
2013-02-01 12:51:00,29.0,20.0,-100.00,SW,230,16.0,21.0,68,-99.99,,,0.00,,2013-02-01 19:51:00,
2013-02-01 13:11:00,29.0,19.0,-100.00,SW,225,14.0,21.0,64,-99.99,,,0.00,,2013-02-01 20:11:00,
2013-02-01 13:21:00,29.0,19.0,-100.00,SW,225,14.0,21.0,64,-99.99,,,0.00,,2013-02-01 20:21:00,
2013-02-01 13:31:00,30.0,19.0,-100.00,WSW,240,12.0,19.0,62,-99.99,,,0.00,,2013-02-01 20:31:00,
2013-02-01 13:42:00,30.0,19.0,-100.00,WSW,240,12.0,19.0,62,-99.99,,,0.00,,2013-02-01 20:42:00,
2013-02-01 13:52:00,30.0,19.0,-100.00,WSW,240,12.0,19.0,62,-99.99,,,0.00,,2013-02-01 20:52:00,
2013-02-01 14:01:00,30.0,19.0,-100.00,WSW,240,12.0,19.0,62,-99.99,,,0.00,,2013-02-01 21:01:00,
2013-02-01 14:11:00,29.0,19.0,-100.00,SW,235,15.0,26.0,66,-99.99,,,0.00,,2013-02-01 21:11:00,
2013-02-01 14:21:00,29.0,19.0,-100.00,SW,235,15.0,26.0,66,-99.99,,,0.00,,2013-02-01 21:21:00,
2013-02-01 14:31:00,29.0,19.0,-100.00,SW,235,15.0,26.0,66,-99.99,,,0.00,,2013-02-01 21:31:00,
2013-02-01 15:11:00,30.0,20.0,-100.00,WSW,240,16.0,22.0,65,-99.99,,,0.00,,2013-02-01 22:11:00,
2013-02-01 15:21:00,30.0,20.0,-100.00,WSW,240,16.0,22.0,65,-99.99,,,0.00,,2013-02-01 22:21:00,
2013-02-01 16:11:00,29.0,19.0,-100.00,SW,230,19.0,27.0,65,-99.99,,,0.00,,2013-02-01 23:11:00,
2013-02-01 16:21:00,29.0,19.0,-100.00,SW,230,19.0,27.0,65,-99.99,,,0.00,,2013-02-01 23:21:00,
2013-02-01 16:31:00,28.0,19.0,-100.00,WSW,240,18.0,26.0,67,-99.99,,,0.00,,2013-02-01 23:31:00,
2013-02-01 16:42:00,28.0,19.0,-100.00,WSW,240,18.0,26.0,67,-99.99,,,0.00,,2013-02-01 23:42:00,
2013-02-01 16:52:00,28.0,19.0,-100.00,WSW,240,18.0,26.0,67,-99.99,,,0.00,,2013-02-01 23:52:00,
2013-02-01 17:01:00,28.0,19.0,-100.00,WSW,240,18.0,26.0,67,-99.99,,,0.00,,2013-02-02 00:01:00,
2013-02-01 17:11:00,28.0,19.0,-100.00,WSW,245,16.0,20.0,68,-99.99,,,0.00,,2013-02-02 00:11:00,
2013-02-01 17:21:00,28.0,19.0,-100.00,WSW,245,16.0,20.0,68,-99.99,,,0.00,,2013-02-02 00:21:00,
2013-02-01 17:32:00,28.0,19.0,-100.00,SW,230,16.0,20.0,68,-99.99,,,0.00,,2013-02-02 00:32:00,
2013-02-01 17:41:00,28.0,19.0,-100.00,SW,230,16.0,20.0,68,-99.99,,,0.00,,2013-02-02 00:41:00,
2013-02-01 17:52:00,28.0,19.0,-100.00,SW,230,16.0,20.0,68,-99.99,,,0.00,,2013-02-02 00:52:00,
2013-02-01 18:01:00,27.0,19.0,-100.00,SW,235,12.0,17.0,70,-99.99,,,0.00,,2013-02-02 01:01:00,
2013-02-01 18:11:00,28.0,19.0,-100.00,SW,235,14.0,18.0,68,-99.99,,,0.00,,2013-02-02 01:11:00,
2013-02-01 18:21:00,28.0,19.0,-100.00,SW,235,14.0,18.0,68,-99.99,,,0.00,,2013-02-02 01:21:00,
2013-02-01 18:31:00,27.0,19.0,-100.00,SW,235,12.0,17.0,70,-99.99,,,0.00,,2013-02-02 01:31:00,
2013-02-01 18:41:00,27.0,19.0,-100.00,SW,235,12.0,17.0,70,-99.99,,,0.00,,2013-02-02 01:41:00,
2013-02-01 18:52:00,27.0,19.0,-100.00,SW,235,12.0,17.0,70,-99.99,,,0.00,,2013-02-02 01:52:00,
2013-02-01 19:11:00,28.0,20.0,-100.00,SW,225,12.0,16.0,70,-99.99,,,0.00,,2013-02-02 02:11:00,
2013-02-01 19:21:00,28.0,20.0,-100.00,SW,225,12.0,16.0,70,-99.99,,,0.00,,2013-02-02 02:21:00,
2013-02-01 22:01:00,26.0,18.0,-100.00,SW,235,8.0,11.0,72,-99.99,,,0.00,,2013-02-02 05:01:00,
2013-02-01 22:11:00,26.0,18.0,-100.00,WSW,245,9.0,12.0,73,-99.99,,,0.00,,2013-02-02 05:11:00,
2013-02-01 22:22:00,26.0,18.0,-100.00,WSW,245,9.0,12.0,73,-99.99,,,0.00,,2013-02-02 05:22:00,
2013-02-01 22:33:00,26.0,18.0,-100.00,SW,235,8.0,11.0,72,-99.99,,,0.00,,2013-02-02 05:33:00,
2013-02-01 22:41:00,26.0,18.0,-100.00,SW,235,8.0,11.0,72,-99.99,,,0.00,,2013-02-02 05:41:00,
2013-02-01 22:52:00,26.0,18.0,-100.00,SW,235,8.0,11.0,72,-99.99,,,0.00,,2013-02-02 05:52:00,
2013-02-01 23:01:00,23.0,18.0,-100.00,SW,215,12.0,14.0,80,-99.99,,,0.00,,2013-02-02 06:01:00,
2013-02-01 23:12:00,24.0,18.0,-100.00,SW,230,12.0,14.0,75,-99.99,,,0.00,,2013-02-02 06:12:00,
2013-02-01 23:21:00,24.0,18.0,-100.00,SW,230,12.0,14.0,75,-99.99,,,0.00,,2013-02-02 06:21:00,
2013-02-01 23:31:00,23.0,18.0,-100.00,SW,215,12.0,14.0,80,-99.99,,,0.00,,2013-02-02 06:31:00,
2013-02-01 23:41:00,23.0,18.0,-100.00,SW,215,12.0,14.0,80,-99.99,,,0.00,,2013-02-02 06:41:00,
2013-02-01 23:51:00,23.0,18.0,-100.00,SW,215,12.0,14.0,80,-99.99,,,0.00,,2013-02-02 06:51:00,